TimeEDT,TemperatureF,Dew PointF,Humidity,Sea Level PressureIn,VisibilityMPH,Wind Direction,Wind SpeedMPH,Gust SpeedMPH,PrecipitationIn,Events,Conditions,WindDirDegrees,DateUTC
12:15 AM,-9999,-9999,N/A,30.12,10.0,Calm,Calm,-,N/A,,Clear,0,2012-10-11 04:15:00
12:35 AM,-9999,-9999,N/A,30.13,10.0,Calm,Calm,-,N/A,,Clear,0,2012-10-11 04:35:00
12:55 AM,53.6,53.6,100,30.13,10.0,Calm,Calm,-,N/A,,Clear,0,2012-10-11 04:55:00
1:15 AM,-9999,-9999,N/A,30.13,10.0,Calm,Calm,-,N/A,,Clear,0,2012-10-11 05:15:00
1:35 AM,51.8,50.0,94,30.14,10.0,Calm,Calm,-,N/A,,Clear,0,2012-10-11 05:35:00
1:55 AM,51.8,50.0,94,30.15,10.0,Calm,Calm,-,N/A,,Clear,0,2012-10-11 05:55:00
2:15 AM,50.0,50.0,100,30.15,10.0,Calm,Calm,-,N/A,,Clear,0,2012-10-11 06:15:00
2:55 AM,50.0,50.0,100,30.16,7.0,Calm,Calm,-,N/A,,Clear,0,2012-10-11 06:55:00
3:15 AM,-9999,-9999,N/A,30.17,7.0,Calm,Calm,-,N/A,,Clear,0,2012-10-11 07:15:00
3:55 AM,-9999,-9999,N/A,30.18,10.0,Calm,Calm,-,N/A,,Clear,0,2012-10-11 07:55:00
4:15 AM,-9999,-9999,N/A,30.19,10.0,Calm,Calm,-,N/A,,Clear,0,2012-10-11 08:15:00
4:35 AM,-9999,-9999,N/A,30.19,10.0,Calm,Calm,-,N/A,,Clear,0,2012-10-11 08:35:00
4:55 AM,-9999,-9999,N/A,30.20,10.0,Calm,Calm,-,N/A,,Clear,0,2012-10-11 08:55:00
5:15 AM,-9999,-9999,N/A,30.20,10.0,Calm,Calm,-,N/A,,Clear,0,2012-10-11 09:15:00
5:35 AM,-9999,-9999,N/A,30.21,10.0,Calm,Calm,-,N/A,,Clear,0,2012-10-11 09:35:00
5:55 AM,-9999,-9999,N/A,30.22,10.0,Calm,Calm,-,N/A,,Clear,0,2012-10-11 09:55:00
6:15 AM,-9999,-9999,N/A,30.23,10.0,Calm,Calm,-,N/A,,Clear,0,2012-10-11 10:15:00
6:35 AM,-9999,-9999,N/A,30.24,10.0,Calm,Calm,-,N/A,,Clear,0,2012-10-11 10:35:00
6:55 AM,-9999,-9999,N/A,30.24,10.0,Calm,Calm,-,N/A,,Clear,0,2012-10-11 10:55:00
7:15 AM,-9999,-9999,N/A,30.25,10.0,Calm,Calm,-,N/A,,Clear,0,2012-10-11 11:15:00
7:35 AM,-9999,-9999,N/A,30.25,7.0,Calm,Calm,-,N/A,,Clear,0,2012-10-11 11:35:00
7:55 AM,-9999,-9999,N/A,30.27,10.0,Calm,Calm,-,N/A,,Clear,0,2012-10-11 11:55:00
8:15 AM,-9999,-9999,N/A,30.28,10.0,Calm,Calm,-,N/A,,Clear,0,2012-10-11 12:15:00
8:35 AM,-9999,-9999,N/A,30.29,10.0,Calm,Calm,-,N/A,,Clear,0,2012-10-11 12:35:00
8:55 AM,50.0,44.6,82,30.30,10.0,North,3.5,-,N/A,,Clear,360,2012-10-11 12:55:00
9:15 AM,50.0,42.8,76,30.31,10.0,NNW,3.5,-,N/A,,Clear,340,2012-10-11 13:15:00
11:15 AM,59.0,37.4,45,30.32,10.0,NE,6.9,-,N/A,,Clear,40,2012-10-11 15:15:00
11:35 AM,59.0,39.2,48,30.32,10.0,NE,5.8,-,N/A,,Clear,40,2012-10-11 15:35:00
11:55 AM,59.0,39.2,48,30.32,10.0,ENE,5.8,-,N/A,,Clear,60,2012-10-11 15:55:00
12:15 PM,59.0,41.0,51,30.31,10.0,Calm,Calm,-,N/A,,Clear,0,2012-10-11 16:15:00
12:35 PM,60.8,41.0,48,30.31,10.0,NNE,3.5,-,N/A,,Clear,30,2012-10-11 16:35:00
12:55 PM,60.8,39.2,45,30.30,10.0,Calm,Calm,-,N/A,,Clear,0,2012-10-11 16:55:00
1:15 PM,60.8,39.2,45,30.29,10.0,Calm,Calm,-,N/A,,Clear,0,2012-10-11 17:15:00
1:55 PM,60.8,39.2,45,30.27,10.0,NNW,3.5,-,N/A,,Clear,340,2012-10-11 17:55:00
2:15 PM,62.6,41.0,45,30.27,10.0,Calm,Calm,-,N/A,,Clear,0,2012-10-11 18:15:00
2:35 PM,62.6,39.2,42,30.26,10.0,Calm,Calm,-,N/A,,Clear,0,2012-10-11 18:35:00
2:55 PM,62.6,41.0,45,30.27,10.0,Calm,Calm,-,N/A,,Clear,0,2012-10-11 18:55:00
3:15 PM,62.6,41.0,45,30.26,10.0,Calm,Calm,-,N/A,,Clear,0,2012-10-11 19:15:00
3:35 PM,64.4,41.0,42,30.26,10.0,Calm,Calm,-,N/A,,Clear,0,2012-10-11 19:35:00
3:55 PM,64.4,41.0,42,30.25,10.0,Calm,Calm,-,N/A,,Clear,0,2012-10-11 19:55:00
4:15 PM,64.4,42.8,45,30.25,10.0,Calm,Calm,-,N/A,,Clear,0,2012-10-11 20:15:00
4:55 PM,64.4,42.8,45,30.25,10.0,SSE,3.5,-,N/A,,Clear,150,2012-10-11 20:55:00
5:15 PM,62.6,42.8,48,30.25,10.0,Calm,Calm,-,N/A,,Clear,0,2012-10-11 21:15:00
6:35 PM,53.6,51.8,94,30.25,10.0,Calm,Calm,-,N/A,,Clear,0,2012-10-11 22:35:00
6:55 PM,53.6,53.6,100,30.25,10.0,Calm,Calm,-,N/A,,Clear,0,2012-10-11 22:55:00
7:15 PM,-9999,-9999,N/A,30.25,10.0,Calm,Calm,-,N/A,,Clear,0,2012-10-11 23:15:00
7:35 PM,-9999,-9999,N/A,30.25,10.0,Calm,Calm,-,N/A,,Clear,0,2012-10-11 23:35:00
7:55 PM,-9999,-9999,N/A,30.25,10.0,Calm,Calm,-,N/A,,Clear,0,2012-10-11 23:55:00
8:15 PM,-9999,-9999,N/A,30.25,10.0,Calm,Calm,-,N/A,,Clear,0,2012-10-12 00:15:00
8:35 PM,-9999,-9999,N/A,30.25,10.0,Calm,Calm,-,N/A,,Clear,0,2012-10-12 00:35:00
9:15 PM,-9999,-9999,N/A,30.26,10.0,Calm,Calm,-,N/A,,Clear,0,2012-10-12 01:15:00
9:35 PM,-9999,-9999,N/A,30.26,10.0,Calm,Calm,-,N/A,,Clear,0,2012-10-12 01:35:00
9:55 PM,-9999,-9999,N/A,30.26,10.0,Calm,Calm,-,N/A,,Clear,0,2012-10-12 01:55:00
10:15 PM,-9999,-9999,N/A,30.26,7.0,Calm,Calm,-,N/A,,Clear,0,2012-10-12 02:15:00
10:55 PM,-9999,-9999,N/A,30.25,7.0,Calm,Calm,-,N/A,,Clear,0,2012-10-12 02:55:00
11:55 PM,-9999,-9999,N/A,30.24,10.0,Calm,Calm,-,N/A,,Clear,0,2012-10-12 03:55:00